Location: Driftpile
(55.3500°N, 115.7667°W)
Time: 11:17:51
(UTC+00:00)

N. Korean satellite - Pass Details

Date: 01 December 2021
Orbit: 447 x 491 km, 97.3° (Epoch: 23 January)

Event Time Altitude Azimuth Distance (km) Brightness Sun altitude
Rises 12:30:37 0° 21° (NNE) 2,486 10.4 -26.5°
Reaches altitude 10° 12:32:52 10° 33° (NNE) 1,601 9.5 -26.2°
Maximum altitude 12:35:54 29° 95° (E) 865 8.4 -25.8°
Drops below altitude 10° 12:38:53 10° 158° (SSE) 1,577 9.4 -25.4°
Sets 12:41:05 0° 170° (S) 2,441 10.3 -25.0°
